This demonstration page uses our WeatherBlox Daily Observations layout. Learn more.

Left ArrowRight Arrow

Hourly Observations for December 18, 2015

Temp ( °F °C ) Dew Point ( °F °C ) Humidity (%) Winds ( mph kmh ) Pressure ( in mb ) Visibility ( mi km ) Precip ( " mm )
12:53 am 00:53 Cloudy 45 7.2 39 3.9 80 80 Calm 30.10 1019 7 11 0.00 0.00
1:23 am 01:23 Cloudy with Haze 44 6.7 39 3.9 83 83 NNW 3 6 30.12 1020 4 6 0.00 0.00
1:43 am 01:43 Cloudy with Mist and Fog 44 6.7 40 4.4 85 85 NW 3 6 30.12 1020 3 4 0.00 0.00
1:53 am 01:53 Cloudy with Mist and Fog 44 6.7 40 4.4 85 85 WNW 3 6 30.11 1020 3 4 0.00 0.00
2:25 am 02:25 Cloudy with Light Rain 44 6.7 40 4.4 85 85 E 3 6 30.09 1019 2 3 0.02 0.51
2:37 am 02:37 Cloudy with Light Rain 44 6.7 40 4.4 85 85 VRB 3 6 30.09 1019 2 2 0.02 0.51
2:46 am 02:46 Cloudy with Light Rain 44 6.7 40 4.4 85 85 VRB 3 6 30.09 1019 2 3 0.03 0.76
2:53 am 02:53 Cloudy with Mist and Fog 44 6.7 40 4.4 85 85 SE 5 7 30.09 1019 2 3 0.03 0.76
3:08 am 03:08 Cloudy with Light Rain 45 7 39 4 81 81 S 3 6 30.09 1019 2 2 0.00 0.00
3:23 am 03:23 Cloudy with Light Rain 44 6.7 40 4.4 85 85 S 5 7 30.09 1019 2 2 0.03 0.76
3:35 am 03:35 Cloudy with Light Rain 44 6.7 41 5 89 89 S 9 15 30.09 1019 2 3 0.03 0.76
3:45 am 03:45 Cloudy with Light Rain 44 6.7 41 5 89 89 S 7 11 30.09 1019 3 5 0.04 1.02
3:53 am 03:53 Cloudy with Mist and Fog 44 6.7 41 5 89 89 SSW 6 9 30.08 1019 3 5 0.04 1.02
4:00 am 04:00 Cloudy with Mist and Fog 45 7 39 4 81 81 SSW 3 6 30.06 1018 4 6 0.00 0.00
4:27 am 04:27 Cloudy with Mist and Fog 44 6.7 41 5 89 89 W 3 6 30.06 1018 3 4 0.00 0.00
4:40 am 04:40 Cloudy with Mist and Fog 45 7 41 5 87 87 WSW 5 7 30.06 1018 3 5 0.00 0.00
4:53 am 04:53 Cloudy with Light Rain 45 7.2 40 4.4 83 83 SSW 6 9 30.06 1018 3 5 0.01 0.25
5:51 am 05:51 Cloudy with Light Rain 45 7 39 4 81 81 Calm 30.03 1017 3 4 0.03 0.76
5:53 am 05:53 Cloudy with Light Rain 44 6.7 40 4.4 85 85 Calm 30.05 1018 3 4 0.04 1.02
6:53 am 06:53 Cloudy with Mist and Fog 44 6.7 40 4.4 85 85 NNW 3 6 30.04 1017 3 4 0.01 0.25
7:17 am 07:17 Cloudy with Light Rain 44 6.7 40 4.4 85 85 W 3 6 30.03 1017 3 5 0.01 0.25
7:50 am 07:50 Cloudy with Mist and Fog 45 7 39 4 81 81 WNW 3 6 30.03 1017 3 4 0.00 0.00
7:53 am 07:53 Cloudy with Light Rain 43 6.1 40 4.4 89 89 Calm 30.04 1017 3 4 0.01 0.25
8:10 am 08:10 Cloudy with Light Rain 43 6 39 4 87 87 VRB 3 6 30.03 1017 2 2 0.00 0.00
8:17 am 08:17 Cloudy with Light Rain 43 6.1 40 4.4 89 89 VRB 5 7 30.03 1017 1 2 0.02 0.51
8:24 am 08:24 Cloudy with Light Rain 45 7 39 4 81 81 WSW 5 7 30.03 1017 2 3 0.00 0.00
8:30 am 08:30 Cloudy with Light Rain 45 7 39 4 81 81 WSW 5 7 30.03 1017 2 3 0.00 0.00
8:46 am 08:46 Cloudy with Light Rain 45 7 39 4 81 81 WSW 3 6 30.03 1017 2 3 0.00 0.00
8:53 am 08:53 Cloudy with Light Rain 44 6.7 40 4.4 85 85 VRB 5 7 30.04 1017 2 3 0.05 1.27
9:53 am 09:53 Cloudy with Light Rain 44 6.7 40 4.4 85 85 N 3 6 30.04 1017 2 3 0.06 1.52
10:00 am 10:00 Cloudy with Light Rain 45 7 39 4 81 81 N 3 6 30.03 1017 2 2 0.00 0.00
10:23 am 10:23 Cloudy with Light Rain 44 6.7 40 4.4 85 85 Calm 30.03 1017 2 2 0.02 0.51
10:29 am 10:29 Cloudy with Light Rain 44 6.7 40 4.4 85 85 Calm 30.03 1017 2 2 0.02 0.51
10:43 am 10:43 Cloudy with Light Rain 44 6.7 40 4.4 85 85 VRB 3 6 30.03 1017 2 2 0.03 0.76
10:53 am 10:53 Cloudy with Rain 44 6.7 40 4.4 85 85 SW 3 6 30.04 1017 2 2 0.04 1.02
10:59 am 10:59 Cloudy with Rain 44 6.7 40 4.4 85 85 W 5 7 30.06 1018 1 2 0.03 0.76
11:28 am 11:28 Cloudy with Light Rain 45 7 39 4 81 81 W 5 7 30.03 1017 2 3 0.00 0.00
11:39 am 11:39 Cloudy with Rain 44 6.7 40 4.4 85 85 W 5 7 30.03 1017 2 3 0.16 4.06
11:53 am 11:53 Cloudy with Light Rain 44 6.7 40 4.4 85 85 W 6 9 30.02 1017 2 3 0.19 4.83
12:13 pm 12:13 Cloudy with Light Rain 44 6.7 40 4.4 85 85 W 5 7 30.03 1017 2 3 0.01 0.25
12:33 pm 12:33 Cloudy with Rain 44 6.7 40 4.4 85 85 Calm 30.00 1016 2 3 0.04 1.02
12:40 pm 12:40 Cloudy with Rain 45 7 39 4 81 81 Calm 30.00 1016 2 3 0.00 0.00
12:53 pm 12:53 Cloudy with Light Rain 44 6.7 40 4.4 85 85 N 3 6 29.98 1015 2 3 0.07 1.78
1:00 pm 13:00 Cloudy with Light Rain 45 7 39 4 81 81 N 3 6 29.97 1015 1 2 0.00 0.00
1:04 pm 13:04 Cloudy with Light Rain 45 7 39 4 81 81 NNE 5 7 29.97 1015 1 2 0.00 0.00
1:21 pm 13:21 Cloudy with Light Rain 44 6.7 41 5 89 89 ENE 5 7 29.97 1015 1 2 0.01 0.25
1:42 pm 13:42 Cloudy with Heavy Rain 45 7 39 4 81 81 N 5 7 29.97 1015 1 1 0.00 0.00
1:53 pm 13:53 Cloudy with Rain 44 6.7 41 5 89 89 Calm 29.96 1015 1 1 0.13 3.30
2:44 pm 14:44 Cloudy with Light Rain 43 6 39 4 87 87 NNE 7 11 29.94 1014 3 4 0.00 0.00
2:53 pm 14:53 Cloudy with Light Rain 42 5.6 39 3.9 89 89 NNE 8 13 29.94 1014 3 5 0.16 4.06
3:00 pm 15:00 Cloudy with Light Rain 43 6 39 4 87 87 NE 5 7 29.94 1014 3 4 0.00 0.00
3:13 pm 15:13 Cloudy with Light Rain 42 5.6 39 3.9 89 89 ENE 6 9 29.94 1014 3 4 0.03 0.76
3:28 pm 15:28 Cloudy with Light Rain 43 6 39 4 87 87 NE 6 9 29.94 1014 3 4 0.00 0.00
3:53 pm 15:53 Cloudy with Light Rain 42 5.6 38 3.3 85 85 N 10 17 29.94 1014 3 4 0.09 2.29
4:31 pm 16:31 Cloudy with Light Rain 41 5 37 2.8 86 86 NNE 6 9 29.94 1014 3 4 0.07 1.78
4:50 pm 16:50 Cloudy with Light Rain 41 5 37 3 87 87 NE 7 11 29.94 1014 3 5 0.00 0.00
4:53 pm 16:53 Cloudy with Light Rain 41 5 37 2.8 86 86 NE 7 11 29.94 1014 4 6 0.10 2.54
5:53 pm 17:53 Cloudy with Light Rain 41 5 38 3.3 89 89 N 5 7 29.93 1014 4 6 0.02 0.51
6:05 pm 18:05 Cloudy with Light Rain 41 5 38 3.3 89 89 N 3 6 29.94 1014 9 14 0.00 0.03
6:53 pm 18:53 Cloudy 42 5.6 38 3.3 85 85 N 5 7 29.93 1014 10 16 0.02 0.51
7:53 pm 19:53 Cloudy 42 5.6 38 3.3 85 85 Calm 29.93 1014 10 16 0.00 0.00
8:53 pm 20:53 Cloudy with Light Rain 42 5.6 38 3.3 85 85 NNE 3 6 29.93 1014 5 8 0.00 0.03
9:18 pm 21:18 Cloudy with Mist and Fog 43 6 37 3 81 81 N 3 6 29.94 1014 3 5 0.00 0.00
9:32 pm 21:32 Cloudy with Mist and Fog 43 6 37 3 81 81 Calm 29.94 1014 3 4 0.00 0.00
9:39 pm 21:39 Cloudy with Mist and Fog 42 5.6 38 3.3 85 85 N 3 6 29.94 1014 3 5 0.01 0.25
9:53 pm 21:53 Cloudy with Mist and Fog 42 5.6 38 3.3 85 85 Calm 29.94 1014 3 5 0.01 0.25
10:30 pm 22:30 Cloudy with Mist and Fog 43 6 39 4 87 87 NW 3 6 29.94 1014 4 6 0.00 0.00
10:48 pm 22:48 Cloudy with Light Rain 43 6 39 4 87 87 NNW 3 6 29.94 1014 3 4 0.00 0.00
10:53 pm 22:53 Cloudy with Light Rain 42 5.6 39 3.9 89 89 Calm 29.94 1014 3 4 0.01 0.25
11:06 pm 23:06 Cloudy with Light Rain 43 6 39 4 87 87 N 5 7 29.94 1014 3 4 0.00 0.00
11:13 pm 23:13 Cloudy with Mist and Fog 42 5.6 39 3.9 89 89 N 5 7 29.94 1014 3 5 0.00 0.03
11:18 pm 23:18 Cloudy with Mist and Fog 43 6 39 4 87 87 N 6 9 29.94 1014 3 4 0.00 0.00
11:24 pm 23:24 Cloudy with Mist and Fog 43 6 39 4 87 87 NNW 3 6 29.94 1014 3 5 0.00 0.00
11:30 pm 23:30 Cloudy with Mist and Fog 43 6 39 4 87 87 NNW 3 6 29.94 1014 4 6 0.00 0.00
11:53 pm 23:53 Cloudy with Mist and Fog 42 5.6 39 3.9 89 89 N 5 7 29.93 1013 3 5 0.01 0.25
11:57 pm 23:57 Cloudy with Mist and Fog 43 6 39 4 87 87 NNW 3 6 29.94 1014 3 4 0.00 0.00

Powered by AerisWeather